[[[{"header":{"parameterUnit":"kt","parameterCategory":2,"dx":1,"dy":1,"la1":30.253999710083008,"la2":30.299108505249023,"lo1":-89.0895004272461,"lo2":-89.04439544677734,"nx":28,"ny":28,"refTime":"2022-09-30T21:00:00:Z","depth":0,"parameterNumber":1,"parameterNumberName":"U-component_of_WINDS"},"data":[-0.7833,-0.7791,-0.7764,-0.7702,-0.7667,-0.7619,-0.7593,-0.7555,-0.7517,-0.7454,-0.7412,-0.7378,-0.7327,-0.7267,-0.7218,-0.7203,-0.7183,-0.7188,-0.7169,-0.7177,-0.7176,-0.7175,-0.7184,-0.7184,-0.7184,-0.7164,-0.7164,-0.7163,-0.7838,-0.7803,-0.7764,-0.7707,-0.7671,-0.765,-0.7602,-0.7572,-0.7529,-0.7483,-0.7441,-0.7382,-0.733,-0.7277,-0.7222,-0.7197,-0.7183,-0.7184,-0.7185,-0.7176,-0.7185,-0.7195,-0.7197,-0.7197,-0.7197,-0.7197,-0.7197,-0.7197,-0.7838,-0.7815,-0.7765,-0.7721,-0.7685,-0.7646,-0.7618,-0.7578,-0.7537,-0.748,-0.7454,-0.7403,-0.7349,-0.7269,-0.7235,-0.7192,-0.7185,-0.7177,-0.7174,-0.7172,-0.7174,-0.7203,-0.7181,-0.7181,-0.7181,-0.7181,-0.7181,0,-0.783,-0.7809,-0.777,-0.7723,-0.7689,-0.7649,-0.7607,-0.7588,-0.7533,-0.7501,-0.7452,-0.7418,-0.7351,-0.7299,-0.7241,-0.7207,-0.7179,-0.7173,-0.7167,-0.7178,-0.7195,-0.7183,-0.7196,-0.7174,-0.7174,-0.7174,-0.7174,-0.7174,-0.7827,-0.7804,-0.7739,-0.7715,-0.7686,-0.7648,-0.7618,-0.7572,-0.7542,-0.7482,-0.7462,-0.7411,-0.7368,-0.7291,-0.7242,-0.719,-0.7176,-0.7171,-0.7168,-0.718,-0.7173,-0.7175,-0.717,-0.7172,-0.7172,-0.7172,-0.7172,0,-0.7827,-0.7785,-0.774,-0.7678,-0.7661,-0.7638,-0.7583,-0.7557,-0.7521,-0.7479,-0.7466,-0.7409,-0.7361,-0.7313,-0.7247,-0.7223,-0.7177,-0.7166,-0.7194,-0.7189,-0.7177,-0.7178,-0.7153,-0.7145,-0.7147,-0.7147,-0.7147,0,-0.7807,-0.7778,-0.7716,-0.7692,-0.7657,-0.7612,-0.7577,-0.7544,-0.75,-0.7466,-0.7429,-0.7398,-0.7342,-0.7302,-0.7267,-0.7221,-0.721,-0.7188,-0.7178,-0.719,-0.7193,-0.7172,-0.7171,-0.7161,-0.7161,-0.7162,-0.7162,0,-0.7812,-0.7745,-0.7706,-0.7684,-0.7615,-0.7597,-0.7567,-0.7518,-0.749,-0.7445,-0.7425,-0.7376,-0.7349,-0.731,-0.7265,-0.7265,-0.7209,-0.72,-0.7186,-0.7187,-0.7176,-0.7177,-0.7167,-0.7162,-0.7162,-0.7162,-0.7162,0,-0.7789,-0.7748,-0.77,-0.7641,-0.7625,-0.7599,-0.7549,-0.7517,-0.7467,-0.7444,-0.7408,-0.7378,-0.7337,-0.733,-0.7271,-0.7283,-0.7257,-0.7233,-0.7231,-0.7223,-0.7217,-0.7216,-0.7213,-0.721,-0.7217,-0.7217,-0.7217,0,-0.7804,-0.7744,-0.7707,-0.7661,-0.7627,-0.7588,-0.7558,-0.7516,-0.7484,-0.7447,-0.741,-0.7369,-0.7355,-0.7335,-0.7312,-0.7271,-0.7255,-0.7272,-0.7215,-0.7214,-0.7229,-0.7226,-0.7237,-0.722,-0.7223,-0.7222,-0.7222,0,-0.7811,-0.7731,-0.7726,-0.7698,-0.7638,-0.761,-0.7576,-0.7527,-0.7505,-0.7463,-0.7431,-0.7373,-0.7359,-0.7328,-0.7298,-0.7277,-0.7265,-0.7265,-0.7262,-0.7264,-0.7223,-0.7233,-0.723,-0.7249,-0.7248,-0.7247,-0.7226,0,-0.7782,-0.7748,-0.7733,-0.7676,-0.7647,-0.7617,-0.757,-0.7545,-0.752,-0.7487,-0.744,-0.7394,-0.7342,-0.7328,-0.7304,-0.7271,-0.7269,-0.7255,-0.7244,-0.7244,-0.7235,-0.7232,-0.7261,-0.726,-0.726,-0.7259,0,0,-0.7807,-0.7757,-0.7718,-0.7686,-0.7659,-0.762,-0.7592,-0.7561,-0.7499,-0.748,-0.7474,-0.7387,-0.735,-0.7298,-0.7294,-0.7274,-0.7263,-0.7266,-0.7245,-0.7244,-0.7242,-0.7234,-0.7232,-0.7258,-0.7258,-0.7258,-0.7258,0,-0.7787,-0.7755,-0.7729,-0.7696,-0.7645,-0.7612,-0.7606,-0.7549,-0.7526,-0.7483,-0.745,-0.7416,-0.7349,-0.7313,-0.7285,-0.7271,-0.7247,-0.7259,-0.7267,-0.7242,-0.7241,-0.724,-0.7233,-0.7231,-0.7257,-0.7257,-0.7257,0,-0.7784,-0.7744,-0.7727,-0.7667,-0.7634,-0.76,-0.7578,-0.7545,-0.7518,-0.7477,-0.7434,-0.7402,-0.735,-0.7309,-0.7288,-0.7282,-0.7235,-0.7243,-0.7244,-0.7241,-0.7214,-0.7213,-0.7213,-0.7221,-0.7221,-0.7221,0,0,-0.7773,-0.7743,-0.7685,-0.766,-0.7641,-0.7592,-0.757,-0.7543,-0.75,-0.7483,-0.7441,-0.7398,-0.7357,-0.7332,-0.7292,-0.7254,-0.7238,-0.724,-0.7242,-0.7243,-0.7241,-0.7215,-0.7214,-0.7222,-0.7222,-0.7222,0,0,-0.7767,-0.7701,-0.7685,-0.765,-0.7611,-0.7551,-0.7536,-0.7514,-0.7474,-0.7472,-0.7424,-0.7411,-0.7371,-0.7341,-0.7351,-0.7287,-0.7278,-0.7275,-0.7309,-0.731,-0.7312,-0.7319,-0.7321,0,0,0,0,0,-0.7724,-0.7709,-0.7695,-0.7683,-0.7607,-0.7559,-0.7549,-0.751,-0.7504,-0.7493,-0.7455,-0.7432,-0.7336,-0.7343,-0.733,-0.732,-0.7225,-0.7225,-0.7224,-0.7258,-0.726,-0.7262,0,0,0,0,0,0,-0.7719,-0.7704,-0.7695,-0.7636,-0.7619,-0.7559,-0.7541,-0.753,-0.7504,-0.7501,-0.744,-0.743,-0.7394,-0.7347,-0.7336,-0.7327,-0.7324,-0.7225,-0.7224,-0.7224,-0.7259,-0.7261,-0.7262,0,0,0,0,0,-0.7715,-0.7703,-0.7592,-0.7636,-0.7621,-0.7566,-0.7541,-0.7532,-0.7511,-0.7452,-0.7442,-0.7484,-0.7395,-0.7383,-0.734,-0.7333,-0.7332,-0.7328,-0.7225,-0.7224,-0.7224,-0.726,0,0,0,0,0,0,-0.7712,-0.7693,-0.7588,-0.7581,-0.764,-0.7568,-0.7556,-0.7534,-0.7463,-0.7453,-0.7495,-0.7493,-0.7396,-0.7386,-0.7377,-0.7337,-0.7338,-0.7334,-0.7331,-0.7224,-0.7224,-0.7224,0,0,0,0,0,0,-0.7699,-0.7688,-0.7584,-0.7591,-0.7585,-0.757,-0.756,-0.7518,-0.7463,-0.7509,-0.7506,-0.7495,-0.7409,-0.7388,-0.7381,-0.7317,-0.7342,-0.7338,-0.7336,-0.7334,-0.7224,-0.7224,0,0,0,0,0,0,-0.7694,-0.7684,-0.7593,-0.7588,-0.7583,-0.751,-0.7532,-0.7456,-0.7472,-0.7513,-0.7472,-0.7472,-0.7411,-0.7403,-0.7384,-0.7323,-0.7319,-0.7342,-0.734,-0.7338,-0.7336,0,0,0,0,0,0,0,-0.7689,-0.7763,-0.7625,-0.7586,-0.7581,-0.7524,-0.7522,-0.7521,-0.7472,-0.7472,-0.7472,-0.7472,-0.7365,-0.736,-0.7356,-0.7328,0,0,-0.7343,-0.7341,0,0,0,0,0,0,0,0,-0.7766,-0.7764,-0.7625,-0.7623,-0.7622,-0.7524,-0.7522,-0.7521,-0.7472,-0.7472,-0.7472,-0.7472,-0.7363,-0.736,-0.7357,0,0,0,0,0,0,0,0,0,0,0,0,0,0,0,-0.7624,-0.7623,0,-0.7524,-0.7522,-0.7521,-0.7472,-0.7472,-0.7472,-0.7472,-0.7363,-0.736,-0.7357,0,0,0,0,0,0,0,0,0,0,0,0,0,0,0,0,0,0,0,0,0,0,0,0,0,0,0,0,0,0,0,0,0,0,0,0,0,0,0,0,0,0,0,0,0,0,0,0,0,0,0,0,0,0,0,0,0,0,0,0,0,0,0,0,0,0,0,0,0]}],[{"header":{"parameterUnit":"kt","parameterCategory":2,"dx":1,"dy":1,"la1":30.253999710083008,"la2":30.299108505249023,"lo1":-89.0895004272461,"lo2":-89.04439544677734,"nx":28,"ny":28,"refTime":"2022-09-30T21:00:00:Z","depth":0,"parameterNumber":2,"parameterNumberName":"V-component_of_WINDS"},"data":[-8.2156,-8.2171,-8.2193,-8.222,-8.2244,-8.2265,-8.2278,-8.2298,-8.2319,-8.2345,-8.2363,-8.2383,-8.2409,-8.2434,-8.2452,-8.246,-8.2466,-8.2457,-8.2468,-8.249,-8.2495,-8.2499,-8.2497,-8.2459,-8.2459,-8.2441,-8.2441,-8.2441,-8.2176,-8.2201,-8.2221,-8.2255,-8.2272,-8.2295,-8.2322,-8.2334,-8.235,-8.2375,-8.2393,-8.2416,-8.2435,-8.2464,-8.2485,-8.249,-8.25,-8.2494,-8.2493,-8.2497,-8.2522,-8.2521,-8.2487,-8.2487,-8.2487,-8.2487,-8.2487,-8.2487,-8.2218,-8.2226,-8.2259,-8.228,-8.2303,-8.2324,-8.2334,-8.236,-8.2378,-8.2404,-8.2423,-8.2441,-8.2467,-8.25,-8.2515,-8.2528,-8.2537,-8.2536,-8.2535,-8.2534,-8.2531,-8.2555,-8.2532,-8.2532,-8.2533,-8.2533,-8.2533,0,-8.2255,-8.2273,-8.2292,-8.2319,-8.2335,-8.2356,-8.2379,-8.2385,-8.2425,-8.2437,-8.2456,-8.2469,-8.2495,-8.2513,-8.2536,-8.2551,-8.257,-8.2574,-8.2573,-8.2564,-8.2555,-8.256,-8.26,-8.2574,-8.2574,-8.2574,-8.2575,-8.2575,-8.2298,-8.2303,-8.2347,-8.2357,-8.2375,-8.2391,-8.2404,-8.2439,-8.2451,-8.2481,-8.2484,-8.2504,-8.252,-8.2544,-8.2569,-8.2587,-8.2596,-8.2584,-8.2598,-8.2591,-8.2595,-8.2594,-8.2595,-8.2579,-8.2579,-8.2578,-8.2578,0,-8.232,-8.2354,-8.2368,-8.2408,-8.2419,-8.2422,-8.2456,-8.2463,-8.2485,-8.2497,-8.2502,-8.2536,-8.2552,-8.2579,-8.2601,-8.2614,-8.2618,-8.2626,-8.261,-8.2613,-8.2605,-8.2605,-8.2574,-8.2572,-8.2613,-8.2612,-8.2612,0,-8.2369,-8.2374,-8.2423,-8.2429,-8.2436,-8.247,-8.2475,-8.2495,-8.2518,-8.2527,-8.2556,-8.2564,-8.2597,-8.2608,-8.2628,-8.2635,-8.2639,-8.2649,-8.2654,-8.2646,-8.2645,-8.265,-8.2651,-8.2665,-8.2665,-8.2665,-8.2665,0,-8.2399,-8.243,-8.2441,-8.2452,-8.2494,-8.2497,-8.2514,-8.2539,-8.255,-8.2569,-8.2577,-8.2595,-8.2604,-8.2617,-8.2642,-8.2651,-8.2652,-8.2668,-8.2662,-8.2661,-8.2658,-8.2658,-8.2626,-8.2665,-8.2665,-8.2665,-8.2665,0,-8.2442,-8.2463,-8.2473,-8.2509,-8.2515,-8.252,-8.2543,-8.2554,-8.2578,-8.2591,-8.2605,-8.2625,-8.2634,-8.2649,-8.2662,-8.2666,-8.2674,-8.2684,-8.2684,-8.2685,-8.27,-8.2678,-8.2646,-8.2643,-8.2689,-8.2689,-8.2689,0,-8.2468,-8.2486,-8.2516,-8.2523,-8.2535,-8.2567,-8.2574,-8.2594,-8.2612,-8.2624,-8.2643,-8.2654,-8.2671,-8.2678,-8.2681,-8.27,-8.2694,-8.2702,-8.2714,-8.2714,-8.2708,-8.2679,-8.2667,-8.2651,-8.2692,-8.2691,-8.2691,0,-8.2491,-8.2542,-8.2541,-8.2556,-8.2588,-8.2597,-8.2604,-8.2624,-8.263,-8.2648,-8.2655,-8.267,-8.2684,-8.2694,-8.2711,-8.2713,-8.2699,-8.2726,-8.2727,-8.272,-8.2695,-8.2684,-8.2681,-8.271,-8.271,-8.2709,-8.2693,0,-8.2549,-8.2561,-8.2561,-8.259,-8.2601,-8.2606,-8.2636,-8.2644,-8.2661,-8.2679,-8.2688,-8.2708,-8.2724,-8.2727,-8.2741,-8.2737,-8.2741,-8.2754,-8.2768,-8.2749,-8.2745,-8.2743,-8.2773,-8.2774,-8.2774,-8.2775,0,0,-8.2565,-8.2583,-8.2612,-8.2621,-8.2632,-8.2663,-8.2666,-8.268,-8.2706,-8.2712,-8.2722,-8.2746,-8.276,-8.2767,-8.2763,-8.2769,-8.277,-8.2775,-8.2758,-8.2756,-8.2754,-8.2749,-8.2747,-8.2776,-8.2776,-8.2776,-8.2776,0,-8.2592,-8.2611,-8.2614,-8.2631,-8.2656,-8.2675,-8.2676,-8.2705,-8.2716,-8.2725,-8.2747,-8.2755,-8.2771,-8.2785,-8.2793,-8.2776,-8.279,-8.2779,-8.2761,-8.2762,-8.276,-8.2757,-8.2751,-8.2749,-8.2777,-8.2777,-8.2777,0,-8.262,-8.2643,-8.2647,-8.2674,-8.269,-8.2699,-8.2724,-8.2732,-8.2739,-8.2767,-8.2774,-8.2788,-8.2807,-8.2809,-8.2811,-8.2818,-8.2807,-8.2814,-8.2812,-8.2812,-8.2814,-8.2811,-8.2808,-8.2845,-8.2845,-8.2846,0,0,-8.2638,-8.2649,-8.2682,-8.2682,-8.269,-8.2718,-8.2725,-8.2742,-8.276,-8.2767,-8.2784,-8.28,-8.281,-8.2815,-8.2826,-8.2824,-8.283,-8.2822,-8.2819,-8.2816,-8.2814,-8.2816,-8.2813,-8.2846,-8.2846,-8.2846,0,0,-8.2646,-8.2685,-8.2699,-8.2703,-8.2721,-8.2751,-8.2749,-8.2766,-8.2778,-8.278,-8.2806,-8.2811,-8.2813,-8.2825,-8.2829,-8.2831,-8.2845,-8.2844,-8.2823,-8.2819,-8.2816,-8.2813,-8.2853,0,0,0,0,0,-8.2688,-8.2681,-8.2694,-8.2698,-8.273,-8.2744,-8.2748,-8.2771,-8.2782,-8.278,-8.2798,-8.2813,-8.2833,-8.2838,-8.2841,-8.2835,-8.2853,-8.2852,-8.2851,-8.2823,-8.2819,-8.2815,0,0,0,0,0,0,-8.269,-8.2696,-8.2694,-8.2723,-8.2731,-8.2745,-8.2768,-8.2774,-8.2783,-8.2786,-8.2809,-8.2813,-8.2831,-8.2838,-8.284,-8.2834,-8.2852,-8.2852,-8.2851,-8.285,-8.2822,-8.2818,-8.2815,0,0,0,0,0,-8.2691,-8.2696,-8.2741,-8.2724,-8.273,-8.2759,-8.2768,-8.2774,-8.278,-8.2806,-8.2811,-8.2797,-8.283,-8.2834,-8.2839,-8.2832,-8.2851,-8.2852,-8.2852,-8.2851,-8.285,-8.282,0,0,0,0,0,0,-8.2693,-8.27,-8.2742,-8.2745,-8.2728,-8.2759,-8.2765,-8.2773,-8.2801,-8.2806,-8.2795,-8.2798,-8.283,-8.2833,-8.2835,-8.283,-8.285,-8.2851,-8.2851,-8.2851,-8.2851,-8.285,0,0,0,0,0,0,-8.2698,-8.2702,-8.2744,-8.2747,-8.2751,-8.2758,-8.2763,-8.277,-8.2801,-8.2788,-8.2791,-8.2796,-8.2825,-8.2832,-8.2834,-8.2843,-8.2849,-8.285,-8.285,-8.285,-8.2851,-8.285,0,0,0,0,0,0,-8.27,-8.2704,-8.2747,-8.2749,-8.2752,-8.2784,-8.2764,-8.2794,-8.2807,-8.2786,-8.2808,-8.2809,-8.2823,-8.2826,-8.2833,-8.2841,-8.2842,-8.2849,-8.2849,-8.285,-8.285,0,0,0,0,0,0,0,-8.2702,-8.2671,-8.2727,-8.2751,-8.2754,-8.277,-8.2771,-8.2771,-8.2807,-8.2807,-8.2808,-8.2809,-8.2844,-8.2845,-8.2846,-8.2839,0,0,-8.2849,-8.2849,0,0,0,0,0,0,0,0,-8.267,-8.2671,-8.2727,-8.2727,-8.2728,-8.277,-8.2771,-8.2771,-8.2807,-8.2807,-8.2808,-8.2808,-8.2844,-8.2845,-8.2846,0,0,0,0,0,0,0,0,0,0,0,0,0,0,0,-8.2727,-8.2727,0,-8.277,-8.2771,-8.2771,-8.2807,-8.2807,-8.2808,-8.2808,-8.2845,-8.2845,-8.2846,0,0,0,0,0,0,0,0,0,0,0,0,0,0,0,0,0,0,0,0,0,0,0,0,0,0,0,0,0,0,0,0,0,0,0,0,0,0,0,0,0,0,0,0,0,0,0,0,0,0,0,0,0,0,0,0,0,0,0,0,0,0,0,0,0,0,0,0,0]}]]]